Regional Weather Roundup
Issued by NWS Green Bay, WI

Home | Current Version | Previous Version | Graphics & Text | Print | Product List | Glossary Off
Versions: 1 2 3 4 5 6 7 8 9 10 11 12 13 14 15 16 17 18 19 20 21 22 23 24 25 26 27 28 29 30 31 32 33 34 35 36 37 38 39 40 41 42 43 44 45 46 47 48 49 50

000
ASUS43 KGRB 220100
RWRGRB

NORTH-CENTRAL AND NORTHEAST WISCONSIN REGIONAL WEATHER ROUNDUP
NATIONAL WEATHER SERVICE GREEN BAY WI
700 PM CST SUN JAN 21 2018

WIZ005-009-010>012-018-019-220200-
NORTH CENTRAL WISCONSIN

CITY           SKY/WX    TMP DP  RH WIND       PRES   REMARKS
IRONWOOD       CLOUDY    30  29  96 NE5       30.02S
MANITOWISH WTR NOT AVBL
ARBOR VITAE    NOT AVBL
EAGLE RIVER    CLOUDY    34  29  83 NE6       29.96S
LAND O LAKES   NOT AVBL
RHINELANDER    CLOUDY    36  32  85 NE3       29.96S
PHILLIPS       CLOUDY    36  31  83 NE5       29.96R
ANTIGO         NOT AVBL
TOMAHAWK       NOT AVBL
MERRILL        CLOUDY    37  31  78 E3        29.95S
$$

WIZ013-073-220200-
NORTHEAST WISCONSIN

CITY           SKY/WX    TMP DP  RH WIND       PRES   REMARKS
IRON MOUNTAIN  CLOUDY    37  30  75 NE6       29.98S
MARINETTE      CLOUDY    35  30  82 CALM      30.01S
$$

WIZ017-030-035>037-045-220200-
CENTRAL WISCONSIN

CITY           SKY/WX    TMP DP  RH WIND       PRES   REMARKS
MEDFORD        NOT AVBL
WAUSAU         MOCLDY    39  29  67 NE3       29.92S
MOSINEE        MOCLDY    37  30  75 E5        29.95R
MARSHFIELD     CLOUDY    37  30  75 NE6       29.92R
WISC RAPIDS    CLOUDY    39  30  70 E6        29.94S
STEVENS POINT  NOT AVBL
WAUPACA        NOT AVBL
SHAWANO        CLOUDY    37  32  80 E6        29.97S
CLINTONVILLE   NOT AVBL
WAUTOMA        CLOUDY    37  32  82 NE7       29.95S
$$

WIZ038-039-048-051-220200-
FOX VALLEY

CITY           SKY/WX    TMP DP  RH WIND       PRES   REMARKS
NWS GREEN BAY  FOG       33  31  92 E8        29.97F VSB 1/4
APPLETON       MOCLDY    37  32  81 VRB5      29.94R HAZE
OSHKOSH        CLOUDY    34  33  96 NE3       29.95S FOG
FOND DU LAC    CLOUDY    34  31  88 N7        29.94S FOG
$$

WIZ022-050-052-220200-
EAST CENTRAL WISCONSIN

CITY           SKY/WX    TMP DP  RH WIND       PRES   REMARKS
EPHRAIM        NOT AVBL
WASHINGTON ISL NOT AVBL
STURGEON BAY   LGT RAIN  33  32  96 E5        30.00S VSB 1/4
MANITOWOC      LGT RAIN  34  34 100 N3        29.98S VSB 1/4
SHEBOYGAN      FOG       34  34 100 NE7       29.96S VSB 1/4
$$

LMZ563-521-522-541>543-220200-
LAKESHORE

STATION/POSITION TIME  TEMP    WIND        PRES    VSBY  WAVE
                       AIR SEA DIR/SP/G                  HT/PER
                 (UTC) (F)     (DEG/KT/KT) (MB)    (MI)  (FT/S)
SHEBOYGAN LKSHOR 0000   35      10/  5/  6 1015.2R
KEWAUNEE LKSHORE 0030   35      30/  4/  4 1014.8R
NORTHPORT PIER   0040   33        CALM     1016.3R
SISTER BAY LKSHO 0020   34        CALM       N/A
MENOMINEE LKSHOR 0030   33      20/  8/  9 1015.6S
$$




USA.gov is the U.S. government's official web portal to all federal, state and local government web resources and services.